Total_Precipitation_Accumulation
0.06 0.07 0.04 0.02 0.02 0.01 0.01 0.00 0.00 0.00 0.00 0.00 0.00 0.00 0.00 0.00 0.00 0.00 0.00 0.00 0.01 0.02 0.03 0.04 0.05 0.05 0.06 0.07 0.06 0.06 0.05 0.04 0.04 0.04 0.03 0.02 0.01 0.01 0.01 0.02 0.02 0.02 0.03
0.06 0.06 0.03 0.02 0.01 0.01 0.01 0.00 0.00 0.00 0.00 0.00 0.00 0.00 0.00 0.00 0.00 0.00 0.00 0.01 0.02 0.03 0.06 0.08 0.08 0.08 0.09 0.10 0.10 0.09 0.09 0.08 0.09 0.09 0.07 0.06 0.05 0.05 0.05 0.05 0.05 0.05 0.04
0.02 0.01 0.01 0.01 0.01 0.00 0.01 0.01 0.00 0.00 0.00 0.00 0.00 0.00 0.00 0.00 0.00 0.01 0.01 0.02 0.03 0.05 0.07 0.09 0.10 0.10 0.09 0.11 0.12 0.11 0.12 0.12 0.12 0.12 0.11 0.11 0.11 0.10 0.10 0.10 0.10 0.09 0.08
0.01 0.01 0.02 0.02 0.02 0.02 0.02 0.02 0.02 0.02 0.02 0.02 0.02 0.02 0.02 0.03 0.03 0.04 0.04 0.05 0.06 0.07 0.08 0.09 0.10 0.10 0.08 0.08 0.08 0.10 0.11 0.12 0.13 0.14 0.15 0.16 0.17 0.17 0.16 0.16 0.16 0.14 0.12
0.03 0.05 0.06 0.07 0.06 0.06 0.06 0.05 0.06 0.06 0.05 0.04 0.03 0.04 0.04 0.04 0.06 0.07 0.08 0.09 0.09 0.07 0.06 0.06 0.07 0.06 0.06 0.06 0.06 0.06 0.07 0.09 0.13 0.15 0.16 0.17 0.21 0.23 0.21 0.21 0.22 0.21 0.18
0.12 0.13 0.12 0.12 0.11 0.10 0.09 0.08 0.06 0.05 0.03 0.03 0.02 0.02 0.02 0.03 0.05 0.06 0.05 0.05 0.04 0.03 0.03 0.02 0.03 0.03 0.03 0.03 0.03 0.03 0.04 0.05 0.08 0.11 0.11 0.14 0.19 0.22 0.20 0.19 0.19 0.21 0.21
0.26 0.23 0.21 0.20 0.17 0.14 0.11 0.09 0.06 0.04 0.03 0.02 0.01 0.01 0.01 0.01 0.01 0.01 0.01 0.01 0.01 0.01 0.01 0.00 0.00 0.00 0.00 0.01 0.01 0.01 0.02 0.03 0.05 0.08 0.10 0.13 0.17 0.19 0.19 0.18 0.18 0.18 0.19
0.39 0.37 0.33 0.29 0.24 0.17 0.11 0.08 0.05 0.02 0.01 0.00 0.00 0.00 0.00 0.00 0.00 0.00 0.00 0.00 0.00 0.00 0.00 0.00 0.00 0.00 0.00 0.00 0.00 0.00 0.01 0.01 0.02 0.06 0.11 0.19 0.22 0.23 0.23 0.22 0.21 0.21 0.20
0.57 0.49 0.41 0.31 0.22 0.15 0.10 0.05 0.02 0.01 0.00 0.00 0.00 0.00 0.00 0.00 0.00 0.00 0.00 0.00 0.00 0.00 0.00 0.00 0.00 0.00 0.00 0.00 0.00 0.01 0.01 0.01 0.02 0.03 0.09 0.16 0.21 0.23 0.23 0.23 0.23 0.25 0.25
0.61 0.48 0.37 0.26 0.17 0.10 0.05 0.02 0.01 0.00 0.00 0.00 0.00 0.00 0.00 0.01 0.01 0.01 0.00 0.00 0.00 0.00 0.00 0.00 0.00 0.00 0.00 0.00 0.02 0.03 0.02 0.02 0.02 0.03 0.04 0.07 0.10 0.13 0.18 0.25 0.28 0.29 0.30
0.51 0.38 0.25 0.14 0.07 0.03 0.01 0.01 0.00 0.00 0.00 0.00 0.00 0.00 0.00 0.00 0.01 0.01 0.01 0.00 0.00 0.00 0.00 0.00 0.00 0.00 0.00 0.01 0.04 0.06 0.05 0.03 0.02 0.03 0.04 0.07 0.09 0.11 0.14 0.19 0.24 0.27 0.29
0.30 0.19 0.10 0.05 0.03 0.02 0.01 0.00 0.00 0.00 0.00 0.00 0.00 0.00 0.00 0.00 0.00 0.01 0.01 0.01 0.01 0.00 0.00 0.00 0.00 0.00 0.00 0.01 0.02 0.03 0.04 0.04 0.04 0.03 0.03 0.04 0.05 0.06 0.09 0.13 0.19 0.24 0.28
0.12 0.08 0.05 0.02 0.01 0.01 0.01 0.00 0.00 0.00 0.00 0.00 0.00 0.00 0.00 0.00 0.01 0.01 0.01 0.02 0.02 0.01 0.00 0.00 0.00 0.00 0.00 0.00 0.01 0.01 0.04 0.05 0.04 0.03 0.02 0.02 0.02 0.03 0.04 0.06 0.10 0.15 0.22
0.06 0.04 0.02 0.01 0.01 0.01 0.00 0.00 0.00 0.00 0.00 0.00 0.00 0.00 0.00 0.00 0.01 0.01 0.01 0.02 0.02 0.01 0.00 0.00 0.00 0.00 0.00 0.00 0.00 0.01 0.04 0.05 0.04 0.03 0.03 0.02 0.02 0.02 0.02 0.03 0.04 0.06 0.09
0.03 0.02 0.01 0.01 0.01 0.00 0.00 0.00 0.00 0.00 0.00 0.00 0.00 0.00 0.00 0.00 0.01 0.01 0.02 0.03 0.07 0.08 0.04 0.01 0.00 0.00 0.00 0.00 0.01 0.02 0.04 0.05 0.05 0.05 0.04 0.03 0.02 0.02 0.02 0.02 0.02 0.03 0.03
0.02 0.01 0.01 0.00 0.00 0.00 0.00 0.00 0.00 0.00 0.00 0.00 0.01 0.01 0.02 0.02 0.02 0.03 0.04 0.05 0.07 0.12 0.10 0.03 0.01 0.00 0.01 0.01 0.02 0.04 0.05 0.04 0.06 0.06 0.05 0.05 0.04 0.04 0.03 0.03 0.03 0.03 0.03
0.01 0.00 0.00 0.00 0.00 0.00 0.00 0.00 0.00 0.00 0.01 0.01 0.02 0.02 0.03 0.04 0.05 0.05 0.05 0.05 0.06 0.09 0.11 0.04 0.02 0.02 0.04 0.06 0.06 0.09 0.09 0.09 0.10 0.13 0.13 0.12 0.10 0.08 0.07 0.07 0.07 0.07 0.06
0.01 0.00 0.00 0.00 0.00 0.00 0.00 0.01 0.01 0.02 0.03 0.03 0.03 0.04 0.04 0.04 0.06 0.05 0.05 0.04 0.05 0.07 0.09 0.08 0.05 0.05 0.07 0.08 0.09 0.09 0.06 0.05 0.08 0.14 0.14 0.11 0.10 0.09 0.09 0.08 0.07 0.07 0.06
0.01 0.01 0.01 0.01 0.01 0.01 0.01 0.01 0.02 0.02 0.02 0.03 0.03 0.03 0.03 0.03 0.04 0.03 0.04 0.05 0.06 0.07 0.11 0.14 0.11 0.10 0.08 0.06 0.08 0.06 0.07 0.11 0.10 0.11 0.10 0.07 0.06 0.05 0.04 0.04 0.04 0.04 0.03
0.02 0.02 0.02 0.02 0.02 0.01 0.01 0.01 0.01 0.01 0.01 0.01 0.01 0.01 0.02 0.02 0.03 0.05 0.06 0.07 0.09 0.11 0.13 0.15 0.12 0.09 0.07 0.05 0.07 0.07 0.09 0.12 0.12 0.09 0.07 0.04 0.03 0.02 0.02 0.04 0.04 0.03 0.02
0.03 0.02 0.02 0.01 0.01 0.00 0.00 0.00 0.00 0.00 0.00 0.00 0.01 0.01 0.01 0.02 0.04 0.07 0.10 0.11 0.13 0.15 0.15 0.15 0.13 0.09 0.06 0.05 0.07 0.09 0.13 0.12 0.09 0.06 0.04 0.03 0.04 0.04 0.06 0.08 0.08 0.06 0.03
0.01 0.01 0.00 0.00 0.00 0.00 0.00 0.00 0.00 0.00 0.00 0.01 0.01 0.02 0.01 0.01 0.03 0.05 0.08 0.11 0.16 0.18 0.17 0.16 0.13 0.10 0.07 0.08 0.12 0.17 0.22 0.19 0.14 0.07 0.07 0.07 0.05 0.06 0.09 0.12 0.15 0.11 0.06
0.00 0.00 0.00 0.00 0.00 0.00 0.00 0.00 0.00 0.00 0.01 0.02 0.03 0.03 0.02 0.02 0.03 0.05 0.06 0.07 0.07 0.09 0.14 0.19 0.19 0.14 0.14 0.17 0.27 0.31 0.28 0.26 0.22 0.16 0.20 0.18 0.09 0.10 0.11 0.19 0.28 0.24 0.18
0.00 0.00 0.00 0.00 0.01 0.01 0.00 0.00 0.00 0.00 0.01 0.02 0.03 0.03 0.04 0.04 0.04 0.06 0.05 0.04 0.03 0.05 0.11 0.18 0.23 0.25 0.28 0.31 0.38 0.41 0.38 0.34 0.25 0.19 0.24 0.25 0.13 0.13 0.17 0.26 0.41 0.43 0.34
0.00 0.00 0.00 0.01 0.01 0.02 0.00 0.00 0.00 0.00 0.01 0.01 0.01 0.02 0.03 0.04 0.06 0.09 0.07 0.05 0.05 0.06 0.14 0.29 0.39 0.44 0.46 0.47 0.47 0.44 0.42 0.37 0.32 0.23 0.23 0.29 0.23 0.18 0.24 0.36 0.44 0.58 0.51
0.01 0.00 0.00 0.01 0.02 0.03 0.01 0.00 0.01 0.01 0.01 0.01 0.01 0.01 0.03 0.07 0.09 0.09 0.06 0.07 0.11 0.13 0.25 0.43 0.52 0.53 0.48 0.46 0.47 0.43 0.40 0.38 0.36 0.34 0.28 0.31 0.31 0.24 0.30 0.45 0.51 0.46 0.41